RH
100 96 88 96 96 96 96 89 96 89 82 77 52 43 50 54 52 62 60 42 30 42 28 11 8 7 7 6 6 6 5 6 11
97 95 91 96 97 97 96 95 96 92 82 76 65 57 47 37 51 59 69 66 53 52 50 46 36 12 8 7 7 6 6 6 7
94 95 93 91 97 98 97 96 97 93 61 43 46 54 56 51 32 32 42 70 85 76 75 56 53 45 13 9 8 7 7 7 6
97 97 96 97 97 95 97 97 98 88 78 57 54 52 50 49 49 36 21 46 50 64 81 82 77 68 59 16 10 9 8 8 7
95 95 96 95 96 96 96 94 94 95 96 96 95 92 81 54 46 44 32 31 45 41 52 61 65 68 72 76 50 12 10 9 9
88 74 89 94 95 96 95 94 89 85 83 81 75 77 87 92 67 41 45 48 52 57 63 57 50 55 59 68 65 36 15 14 14
65 56 74 95 95 96 95 94 88 88 89 88 86 83 85 89 95 92 67 60 61 75 78 55 58 55 60 53 52 48 34 21 16
37 41 62 87 98 95 95 97 97 96 98 98 97 89 80 69 75 80 94 96 75 60 65 45 51 48 32 21 18 19 22 22 19
36 41 60 90 100 98 96 97 96 97 95 96 99 97 93 85 85 67 80 84 80 97 96 86 45 33 30 27 23 21 20 18 18
16 33 46 79 79 98 95 98 94 91 90 98 100 99 95 97 96 96 87 84 63 52 59 85 97 88 74 70 66 47 33 27 22
9 18 33 47 54 90 81 96 90 89 97 92 98 97 98 97 98 98 93 94 96 95 90 72 56 74 70 57 51 56 64 60 56
12 11 15 87 62 39 65 94 85 70 90 96 96 97 98 98 96 80 90 88 97 100 96 88 78 67 65 72 61 49 51 52 50
9 9 9 8 76 49 28 39 37 29 21 17 26 42 49 41 48 34 71 86 67 54 66 86 94 86 82 88 94 98 82 75 74
6 6 6 7 9 9 9 10 10 9 9 8 8 8 8 8 8 7 7 8 8 8 8 8 9 9 9 11 29 47 52 31 18
6 5 6 9 11 11 11 12 12 12 13 13 12 12 11 11 11 10 9 9 9 10 10 11 12 12 13 14 15 14 13 12 13
6 6 6 8 9 11 13 15 15 16 16 16 14 13 12 11 11 10 10 9 9 10 11 12 13 14 14 15 16 16 17 16 16
6 7 9 11 13 15 17 18 19 20 19 19 17 16 15 14 14 12 12 11 10 11 11 12 13 14 14 15 15 16 16 17 18
10 13 16 16 18 20 23 24 24 25 25 24 23 21 18 18 16 15 14 13 13 12 13 13 14 16 17 17 18 18 19 19 20
76 32 19 19 22 24 25 28 29 30 31 30 29 27 25 22 20 19 17 15 15 15 15 15 16 16 16 17 18 19 20 21 22
80 71 58 48 32 24 24 26 27 30 32 34 34 32 32 31 28 24 20 18 18 19 19 20 19 18 18 19 20 21 22 23 24
Wind_Speed
20 27 27 24 22 19 18 19 18 18 17 15 13 13 12 11 11 12 10 9 10 11 9 9 9 8 7 7 8 9 10 11 11
21 25 24 24 23 25 23 24 22 21 19 17 15 13 13 13 13 12 11 12 11 11 10 10 9 9 9 8 8 9 10 11 11
21 22 22 23 22 27 28 26 23 23 21 19 18 17 16 15 15 14 14 13 12 13 12 12 12 11 10 9 9 9 10 11 12
23 28 28 19 38 31 29 25 27 24 23 22 21 20 19 18 18 17 17 16 15 15 13 13 12 11 10 10 10 10 10 10 11
19 20 23 26 26 28 27 25 22 21 20 20 19 20 21 21 21 20 19 17 16 16 16 16 15 14 14 13 12 12 10 10 10
25 24 27 25 21 20 22 22 22 22 23 23 23 25 25 24 23 22 21 20 18 14 16 18 18 17 17 16 13 12 12 11 11
30 28 28 27 25 23 24 24 25 26 26 26 26 26 27 27 25 25 24 22 23 21 18 15 16 17 15 11 12 13 14 13 13
30 29 28 28 27 25 26 25 26 28 28 29 30 29 30 31 31 30 28 24 28 24 21 20 22 22 21 20 19 19 18 17 17
31 28 26 29 28 28 29 29 30 31 30 28 29 31 31 32 32 32 33 33 31 29 29 28 30 28 26 27 25 23 23 24 22
33 32 27 27 30 30 31 29 27 28 31 32 29 29 30 30 31 32 34 34 33 31 33 32 30 29 29 29 27 27 27 27 26
37 36 32 33 31 29 33 31 30 29 22 30 31 32 29 29 31 32 33 32 34 34 35 33 31 30 29 27 28 29 29 28 27
40 40 37 37 31 38 35 36 34 36 38 34 32 32 32 31 31 31 30 33 31 31 33 35 35 35 35 33 33 29 28 27 27
39 40 41 40 33 42 40 40 38 38 37 36 35 35 35 35 34 33 33 33 31 30 29 29 29 29 29 30 29 28 29 29 28
40 41 41 42 41 39 38 39 39 37 37 36 35 35 35 35 35 35 35 35 33 32 30 30 30 29 29 29 29 29 28 28 28
41 42 42 42 40 38 39 39 39 39 39 39 39 39 39 39 39 38 38 37 36 35 34 34 33 33 32 32 32 32 32 32 31
42 42 42 42 41 41 40 40 41 41 41 42 42 42 43 43 42 42 41 41 41 41 40 39 39 39 38 38 37 37 37 37 37
44 44 44 44 44 44 44 44 45 45 45 45 46 46 46 46 46 46 46 46 46 46 46 45 44 44 43 43 43 43 42 43 43
49 49 49 49 48 48 48 49 48 48 49 49 49 49 49 49 50 50 49 49 49 49 49 49 48 48 47 47 47 47 47 48 48
54 54 53 53 53 54 52 52 52 51 51 52 52 52 52 52 52 52 51 52 52 52 52 52 51 51 51 51 51 51 52 53 53
61 59 59 59 59 59 58 57 56 55 54 54 54 55 55 54 53 54 54 54 53 53 52 52 52 53 53 54 54 55 55 55 56
Wind_Direction
205 199 202 201 212 208 208 205 200 198 202 204 204 204 210 213 202 202 201 199 202 199 195 194 195 188 189 190 183 185 180 178 179
206 205 210 213 214 218 217 212 204 204 203 202 204 209 209 214 219 214 209 213 214 212 207 207 204 192 190 192 191 189 190 187 188
207 207 211 231 217 221 225 215 213 205 205 207 206 209 213 213 217 221 223 225 220 218 213 215 215 207 200 196 192 189 188 194 192
218 215 220 217 222 224 217 218 215 208 209 209 209 211 213 215 217 220 222 227 226 225 223 218 220 215 215 210 207 200 192 190 197
250 241 231 233 208 190 196 200 204 210 214 218 221 221 223 223 221 220 220 222 228 231 229 230 229 227 220 216 212 209 207 202 199
263 263 256 246 234 219 219 219 221 224 228 230 231 231 232 229 229 227 226 228 230 225 221 226 231 235 234 226 216 213 215 213 211
256 255 247 242 237 228 231 230 230 231 227 227 228 233 228 226 228 229 230 229 230 230 218 221 224 226 226 230 232 234 231 226 227
246 246 245 238 237 232 227 227 231 233 236 235 234 227 226 225 228 229 227 224 228 230 235 233 228 227 238 245 242 240 244 243 239
238 237 236 243 240 237 238 237 237 237 237 236 236 236 233 235 236 233 230 230 233 235 240 244 242 240 241 246 244 241 241 245 245
240 238 232 239 238 238 240 241 238 244 244 239 236 236 237 237 238 237 239 236 236 237 240 242 244 243 242 243 243 244 244 245 245
237 235 233 243 229 235 235 234 226 223 230 235 230 236 235 238 238 241 240 239 239 242 245 240 239 241 240 245 246 247 247 246 246
236 234 226 226 237 235 235 233 229 229 234 238 236 234 232 234 237 238 236 240 239 236 237 240 243 244 249 250 248 244 246 247 247
236 231 225 225 219 236 233 234 235 234 236 237 236 235 237 237 239 238 236 238 240 239 238 238 240 244 250 254 254 254 249 252 253
236 230 227 226 230 233 234 235 235 235 236 237 238 238 239 239 239 240 239 239 240 240 240 239 239 239 240 244 248 253 254 255 256
235 232 232 232 234 236 238 240 241 241 241 242 242 243 243 243 243 242 243 244 244 243 243 243 244 244 245 245 246 248 251 254 256
236 234 234 236 238 241 242 243 244 244 245 245 246 246 245 245 245 245 245 246 248 249 249 248 248 249 249 249 250 251 252 253 255
237 238 239 240 241 242 245 246 247 247 248 249 249 249 249 250 250 249 249 248 248 249 251 252 253 253 254 254 255 255 256 257 258
240 240 242 243 244 243 245 246 248 250 251 252 252 252 252 251 251 251 252 252 253 253 253 253 254 255 256 256 257 257 258 258 259
239 243 245 244 245 247 247 249 249 249 251 253 254 255 254 254 254 253 253 254 254 254 255 256 256 256 257 258 258 259 260 261 262
240 238 241 244 246 248 248 249 250 252 253 254 255 255 255 255 255 255 255 255 255 255 256 257 258 258 259 259 259 260 262 262 263